AFL2144 UUEE-LTAI

Flight info

Callsign AFL2144
Flight time N/A
Altitude 31000
Route TOGMO3H TOGMO M56 ABAGI B105 NIMTA/K0846F320 B105 NATIT/K0846F330 DCT MOLED DCT SL DCT SUBED DCT LIDUS G242 ZG DCT ITAKA/K0856F340 DCT KUDAS DCT MKL DCT KUFAN/N0459F340 DCT NOLGA UG261 TBN UW706 SIV UT54 HALIL/N0455F350 UW77 HISAR
Aircraft A321/M-SDE3FGHIRWY/LB1

Departure

Time N/A
Airport Sheremetyevo International Airport (UUEE)

Arrival

Time 2026-05-05 18:31
Airport Antalya International Airport (LTAI)
Time Latitude Longitude Altitude Speed Heading
2026-05-05 13:46 55.81056 38.05311 22780 ft 340 kts 145°
2026-05-05 13:46 55.79165 38.07838 22749 ft 339 kts 155°
2026-05-05 13:46 55.77061 38.09500 22812 ft 324 kts 176°
2026-05-05 13:47 55.74880 38.09432 22680 ft 312 kts 204°
2026-05-05 13:47 55.73056 38.07577 22761 ft 296 kts 230°
2026-05-05 13:47 55.71866 38.04607 22536 ft 300 kts 244°
2026-05-05 13:47 55.70885 38.01259 22257 ft 312 kts 244°
2026-05-05 13:48 55.69890 37.97842 22284 ft 311 kts 244°
2026-05-05 13:48 55.68898 37.94445 22412 ft 309 kts 243°
2026-05-05 13:48 55.67644 37.91377 22532 ft 310 kts 224°
2026-05-05 13:48 55.65859 37.89260 22665 ft 313 kts 208°
2026-05-05 13:49 55.63784 37.88022 22799 ft 316 kts 196°
2026-05-05 13:49 55.61589 37.87548 22932 ft 319 kts 186°
2026-05-05 13:49 55.59363 37.87780 23065 ft 321 kts 179°
2026-05-05 13:49 55.57150 37.88167 23197 ft 320 kts 180°
2026-05-05 13:50 55.54906 37.88528 23339 ft 327 kts 180°
2026-05-05 13:50 55.52610 37.88884 23477 ft 335 kts 180°
2026-05-05 13:50 55.50293 37.89250 23595 ft 343 kts 180°
2026-05-05 13:50 55.47885 37.89637 23711 ft 351 kts 179°
2026-05-05 13:51 55.45422 37.90036 23839 ft 360 kts 179°
2026-05-05 13:51 55.42896 37.90502 23945 ft 370 kts 175°
2026-05-05 13:51 55.40346 37.91467 24065 ft 381 kts 168°
2026-05-05 13:51 55.37814 37.93052 24184 ft 392 kts 160°
2026-05-05 13:52 55.35364 37.95266 24302 ft 402 kts 152°
2026-05-05 13:52 55.33007 37.98019 24421 ft 410 kts 149°
2026-05-05 13:52 55.30625 38.00847 24548 ft 416 kts 149°
2026-05-05 13:52 55.28201 38.03699 24655 ft 423 kts 149°
2026-05-05 13:53 55.25735 38.06587 24774 ft 429 kts 149°
2026-05-05 13:53 55.23236 38.09502 24890 ft 435 kts 149°
2026-05-05 13:53 55.20704 38.12454 25005 ft 440 kts 149°
2026-05-05 13:53 55.18137 38.15451 25138 ft 446 kts 149°
2026-05-05 13:54 55.15542 38.18484 25248 ft 451 kts 149°
2026-05-05 13:54 55.12918 38.21548 25353 ft 457 kts 149°
2026-05-05 13:54 55.10255 38.24648 25489 ft 462 kts 149°
2026-05-05 13:54 55.07603 38.27726 25604 ft 466 kts 149°
2026-05-05 13:55 55.04889 38.30868 25734 ft 471 kts 149°
2026-05-05 13:55 55.02149 38.34037 25899 ft 474 kts 149°
2026-05-05 13:55 54.99403 38.37211 26183 ft 474 kts 149°
2026-05-05 13:55 54.96655 38.40384 26507 ft 474 kts 149°
2026-05-05 13:56 54.93908 38.43555 26834 ft 473 kts 149°
2026-05-05 13:56 54.91162 38.46716 27165 ft 473 kts 149°
2026-05-05 13:56 54.88421 38.49860 27484 ft 472 kts 149°
2026-05-05 13:56 54.85681 38.52995 27814 ft 471 kts 149°
2026-05-05 13:57 54.82945 38.56122 28144 ft 471 kts 149°
2026-05-05 13:57 54.80217 38.59240 28464 ft 470 kts 149°
2026-05-05 13:57 54.77486 38.62357 28789 ft 469 kts 149°
2026-05-05 13:57 54.74754 38.65438 29122 ft 468 kts 150°
2026-05-05 13:58 54.71994 38.68407 29431 ft 467 kts 151°
2026-05-05 13:58 54.69211 38.71290 29749 ft 466 kts 152°
2026-05-05 13:58 54.66416 38.74123 30044 ft 465 kts 152°
2026-05-05 13:58 54.63631 38.76932 30313 ft 464 kts 152°
2026-05-05 13:59 54.58084 38.82603 30798 ft 463 kts 151°
2026-05-05 13:59 54.55357 38.85439 30846 ft 465 kts 151°
2026-05-05 14:00 54.47030 38.94088 30854 ft 466 kts 151°
2026-05-05 14:00 54.41644 39.00297 30854 ft 469 kts 140°
2026-05-05 14:01 54.37499 39.08936 30853 ft 473 kts 121°
2026-05-05 14:01 54.34842 39.19260 30854 ft 474 kts 113°
2026-05-05 14:02 54.32328 39.29698 30852 ft 474 kts 114°
2026-05-05 14:02 54.29792 39.40118 30857 ft 474 kts 114°
2026-05-05 14:03 54.27269 39.50438 30860 ft 473 kts 114°
2026-05-05 14:03 54.24724 39.60808 30856 ft 473 kts 114°
2026-05-05 14:04 54.22177 39.71161 30853 ft 472 kts 114°
2026-05-05 14:04 54.19630 39.81492 30856 ft 472 kts 114°
2026-05-05 14:05 54.17067 39.91786 30852 ft 471 kts 114°
2026-05-05 14:05 54.14496 40.02060 30853 ft 470 kts 114°
2026-05-05 14:06 54.11946 40.12325 30864 ft 470 kts 111°
2026-05-05 14:06 54.10039 40.22978 30865 ft 469 kts 107°
2026-05-05 14:07 54.08212 40.33569 30861 ft 469 kts 107°
2026-05-05 14:07 54.06337 40.44265 30859 ft 468 kts 107°
2026-05-05 14:08 54.04478 40.54808 30858 ft 468 kts 107°
2026-05-05 14:08 54.02607 40.65398 30854 ft 468 kts 107°
2026-05-05 14:09 54.00726 40.75981 30856 ft 467 kts 107°
2026-05-05 14:09 53.98844 40.86562 30860 ft 467 kts 107°
2026-05-05 14:10 53.96952 40.97112 30861 ft 467 kts 108°
2026-05-05 14:10 53.95058 41.07671 30872 ft 467 kts 107°
2026-05-05 14:11 53.93309 41.18292 30878 ft 467 kts 106°
2026-05-05 14:11 53.91624 41.28848 30884 ft 466 kts 106°
2026-05-05 14:12 53.89899 41.39434 30884 ft 465 kts 107°
2026-05-05 14:12 53.88136 41.49982 30886 ft 465 kts 107°
2026-05-05 14:13 53.86357 41.60506 30883 ft 464 kts 107°
2026-05-05 14:13 53.84578 41.70996 30885 ft 463 kts 107°
2026-05-05 14:14 53.82794 41.81471 30879 ft 463 kts 107°
2026-05-05 14:14 53.81005 41.91938 30886 ft 462 kts 107°
2026-05-05 14:15 53.79218 42.02305 30889 ft 462 kts 107°
2026-05-05 14:15 53.77413 42.12725 30887 ft 462 kts 107°
2026-05-05 14:16 53.75599 42.23132 30887 ft 461 kts 108°
2026-05-05 14:16 53.73776 42.33511 30890 ft 461 kts 108°
2026-05-05 14:17 53.71942 42.43891 30889 ft 461 kts 108°
2026-05-05 14:17 53.70092 42.54242 30892 ft 460 kts 109°
2026-05-05 14:18 53.68886 42.59205 30888 ft 458 kts 120°
2026-05-05 14:18 53.67185 42.63737 30889 ft 455 kts 129°
2026-05-05 14:18 53.62586 42.70928 30877 ft 450 kts 149°
2026-05-05 14:19 53.56994 42.75415 30874 ft 448 kts 158°
2026-05-05 14:19 53.51256 42.79532 30875 ft 449 kts 158°
2026-05-05 14:20 53.45532 42.83672 30883 ft 449 kts 158°
2026-05-05 14:20 53.39790 42.87816 30891 ft 449 kts 158°
2026-05-05 14:21 53.34043 42.91915 30896 ft 449 kts 158°
2026-05-05 14:21 53.28304 42.95995 30907 ft 448 kts 158°
2026-05-05 14:22 53.22567 43.00079 30914 ft 448 kts 158°
2026-05-05 14:22 53.16829 43.04150 30915 ft 448 kts 158°
2026-05-05 14:23 53.11106 43.08221 30917 ft 447 kts 157°
2026-05-05 14:23 53.05429 43.12445 30913 ft 447 kts 156°
2026-05-05 14:24 52.99778 43.16706 30913 ft 446 kts 156°
2026-05-05 14:24 52.94111 43.20927 30913 ft 446 kts 156°
2026-05-05 14:25 52.88486 43.25078 30912 ft 446 kts 156°
2026-05-05 14:25 52.82820 43.29249 30915 ft 446 kts 156°
2026-05-05 14:26 52.77154 43.33405 30916 ft 446 kts 156°
2026-05-05 14:26 52.71485 43.37542 30914 ft 445 kts 156°
2026-05-05 14:27 52.65819 43.41682 30922 ft 445 kts 156°
2026-05-05 14:27 52.60153 43.45801 30919 ft 445 kts 156°
2026-05-05 14:28 52.54495 43.49907 30921 ft 444 kts 156°
2026-05-05 14:28 52.48838 43.53984 30921 ft 444 kts 156°
2026-05-05 14:29 52.43178 43.58050 30917 ft 444 kts 156°
2026-05-05 14:29 52.37531 43.62117 30921 ft 444 kts 156°
2026-05-05 14:30 52.31872 43.66198 30922 ft 444 kts 156°
2026-05-05 14:30 52.26217 43.70238 30927 ft 444 kts 156°
2026-05-05 14:31 52.20590 43.74241 30928 ft 444 kts 156°
2026-05-05 14:31 52.14939 43.78254 30926 ft 444 kts 156°
2026-05-05 14:32 52.09282 43.82272 30930 ft 443 kts 156°
2026-05-05 14:32 52.03621 43.86278 30929 ft 443 kts 156°
2026-05-05 14:33 51.97962 43.90266 30934 ft 443 kts 156°
2026-05-05 14:33 51.92301 43.94243 30933 ft 444 kts 156°
2026-05-05 14:34 51.86634 43.98231 30938 ft 444 kts 155°
2026-05-05 14:34 51.80963 44.02206 30936 ft 444 kts 156°
2026-05-05 14:35 51.76248 44.05494 30940 ft 444 kts 155°
2026-05-05 14:35 51.70572 44.09443 30944 ft 444 kts 155°
2026-05-05 14:36 51.64894 44.13386 30942 ft 445 kts 155°
2026-05-05 14:36 51.59208 44.17320 30945 ft 445 kts 155°
2026-05-05 14:37 51.53519 44.21248 30950 ft 445 kts 155°
2026-05-05 14:37 51.47864 44.25135 30948 ft 445 kts 155°
2026-05-05 14:38 51.42175 44.29043 30944 ft 445 kts 155°
2026-05-05 14:38 51.36484 44.32939 30942 ft 445 kts 155°
2026-05-05 14:39 51.30780 44.36822 30945 ft 446 kts 155°
2026-05-05 14:39 51.25081 44.40709 30947 ft 446 kts 155°
2026-05-05 14:40 51.19360 44.44554 30944 ft 447 kts 159°
2026-05-05 14:40 51.13273 44.46510 30945 ft 450 kts 176°
2026-05-05 14:41 51.07005 44.46068 30947 ft 452 kts 182°
2026-05-05 14:41 51.00771 44.45481 30950 ft 452 kts 181°
2026-05-05 14:42 50.94494 44.44902 30947 ft 452 kts 181°
2026-05-05 14:42 50.88215 44.44322 30951 ft 452 kts 182°
2026-05-05 14:43 50.81934 44.43736 30952 ft 452 kts 182°
2026-05-05 14:43 50.75666 44.43157 30952 ft 452 kts 182°
2026-05-05 14:44 50.72513 44.42867 31076 ft 454 kts 182°
2026-05-05 14:44 50.69357 44.42580 31315 ft 454 kts 182°
2026-05-05 14:44 50.66208 44.42290 31577 ft 453 kts 182°
2026-05-05 14:44 50.63059 44.41992 31835 ft 453 kts 182°
2026-05-05 14:45 50.59914 44.41698 31947 ft 453 kts 182°
2026-05-05 14:45 50.56766 44.41409 31960 ft 453 kts 182°
2026-05-05 14:45 50.50518 44.40836 31967 ft 453 kts 182°
2026-05-05 14:46 50.44230 44.40252 31963 ft 453 kts 182°
2026-05-05 14:46 50.37942 44.39687 31967 ft 453 kts 182°
2026-05-05 14:47 50.31644 44.39124 31968 ft 453 kts 182°
2026-05-05 14:47 50.25348 44.38553 31966 ft 453 kts 182°
2026-05-05 14:48 50.19041 44.37971 31961 ft 454 kts 182°
2026-05-05 14:48 50.12741 44.37405 31958 ft 454 kts 182°
2026-05-05 14:49 50.06431 44.36833 31959 ft 454 kts 182°
2026-05-05 14:49 50.00124 44.36264 31960 ft 454 kts 182°
2026-05-05 14:50 49.93849 44.35707 31962 ft 454 kts 182°
2026-05-05 14:50 49.87538 44.35141 31957 ft 455 kts 182°
2026-05-05 14:51 49.81219 44.34579 31958 ft 455 kts 182°
2026-05-05 14:51 49.74896 44.34028 31959 ft 455 kts 182°
2026-05-05 14:52 49.68562 44.33464 31958 ft 456 kts 182°
2026-05-05 14:52 49.62227 44.32891 31958 ft 456 kts 182°
2026-05-05 14:53 49.55930 44.33524 31961 ft 453 kts 165°
2026-05-05 14:53 49.50018 44.36773 31956 ft 451 kts 155°
2026-05-05 14:54 49.44213 44.40483 31955 ft 452 kts 156°
2026-05-05 14:54 49.38388 44.44156 31957 ft 453 kts 156°
2026-05-05 14:55 49.32604 44.47807 31960 ft 453 kts 156°
2026-05-05 14:55 49.26777 44.51490 31966 ft 453 kts 155°
2026-05-05 14:56 49.20957 44.55156 31972 ft 453 kts 155°
2026-05-05 14:56 49.15131 44.58822 31977 ft 452 kts 155°
2026-05-05 14:57 49.09313 44.62470 31979 ft 452 kts 155°
2026-05-05 14:57 49.03502 44.66106 31982 ft 451 kts 155°
2026-05-05 14:58 48.97693 44.69729 31981 ft 451 kts 155°
2026-05-05 14:58 48.91892 44.73334 31982 ft 450 kts 155°
2026-05-05 14:59 48.86100 44.76932 31980 ft 449 kts 154°
2026-05-05 14:59 48.80858 44.81779 31975 ft 443 kts 139°
2026-05-05 15:00 48.76800 44.86628 31966 ft 443 kts 139°
2026-05-05 15:00 48.71156 44.93301 32061 ft 444 kts 140°
2026-05-05 15:01 48.68720 44.96172 32310 ft 444 kts 140°
2026-05-05 15:01 48.66283 44.99041 32577 ft 443 kts 140°
2026-05-05 15:01 48.63853 45.01903 32833 ft 443 kts 140°
2026-05-05 15:01 48.61423 45.04762 32951 ft 443 kts 140°
2026-05-05 15:02 48.56561 45.10482 32958 ft 442 kts 140°
2026-05-05 15:02 48.51701 45.16184 32955 ft 443 kts 140°
2026-05-05 15:03 48.46837 45.21873 32957 ft 443 kts 140°
2026-05-05 15:03 48.41967 45.27550 32959 ft 443 kts 140°
2026-05-05 15:04 48.36672 45.32213 32959 ft 446 kts 152°
2026-05-05 15:04 48.31085 45.36291 32949 ft 446 kts 151°
2026-05-05 15:05 48.22724 45.42432 32948 ft 446 kts 151°
2026-05-05 15:06 48.17143 45.46525 32958 ft 446 kts 151°
2026-05-05 15:06 48.11568 45.50602 32955 ft 446 kts 152°
2026-05-05 15:07 48.05987 45.54659 32956 ft 446 kts 152°
2026-05-05 15:07 48.00408 45.58707 32955 ft 446 kts 152°
2026-05-05 15:08 47.94860 45.62717 32959 ft 446 kts 152°
2026-05-05 15:08 47.89280 45.66753 32958 ft 446 kts 152°
2026-05-05 15:09 47.83694 45.70774 32959 ft 446 kts 152°
2026-05-05 15:09 47.78111 45.74788 32958 ft 446 kts 152°
2026-05-05 15:10 47.72532 45.78795 32956 ft 446 kts 152°
2026-05-05 15:10 47.66940 45.82793 32966 ft 446 kts 152°
2026-05-05 15:11 47.61347 45.86790 32956 ft 446 kts 152°
2026-05-05 15:11 47.55756 45.90780 32953 ft 446 kts 152°
2026-05-05 15:12 47.50196 45.94722 32939 ft 446 kts 152°
2026-05-05 15:12 47.44597 45.98684 32938 ft 446 kts 152°
2026-05-05 15:13 47.38993 46.02643 32940 ft 447 kts 152°
2026-05-05 15:13 47.33394 46.06612 32936 ft 447 kts 152°
2026-05-05 15:14 47.27781 46.10589 32939 ft 448 kts 152°
2026-05-05 15:14 47.22166 46.14549 32942 ft 448 kts 152°
2026-05-05 15:15 47.16544 46.18501 32942 ft 448 kts 153°
2026-05-05 15:15 47.10909 46.22446 32936 ft 448 kts 153°
2026-05-05 15:16 47.05630 46.27219 32942 ft 445 kts 137°
2026-05-05 15:16 47.01666 46.33994 32935 ft 442 kts 121°
2026-05-05 15:17 46.98375 46.41604 32927 ft 442 kts 121°
2026-05-05 15:17 46.95061 46.49202 32925 ft 443 kts 122°
2026-05-05 15:18 46.91743 46.56793 32920 ft 443 kts 122°
2026-05-05 15:18 46.88414 46.64393 32922 ft 444 kts 122°
2026-05-05 15:19 46.85080 46.71985 32918 ft 444 kts 122°
2026-05-05 15:19 46.81743 46.79562 32912 ft 444 kts 122°
2026-05-05 15:20 46.78397 46.87135 32908 ft 444 kts 123°
2026-05-05 15:20 46.75045 46.94711 32907 ft 445 kts 123°
2026-05-05 15:21 46.71678 47.02289 32907 ft 445 kts 123°
2026-05-05 15:21 46.68315 47.09860 32904 ft 445 kts 123°
2026-05-05 15:22 46.65022 47.17432 32900 ft 446 kts 123°
2026-05-05 15:22 46.61712 47.25083 32899 ft 447 kts 123°
2026-05-05 15:23 46.58375 47.32720 32896 ft 448 kts 123°
2026-05-05 15:23 46.55017 47.40346 32899 ft 449 kts 123°
2026-05-05 15:24 46.51656 47.47992 32897 ft 449 kts 123°
2026-05-05 15:24 46.48292 47.55624 32898 ft 449 kts 124°
2026-05-05 15:25 46.44909 47.63256 32895 ft 450 kts 124°
2026-05-05 15:25 46.41539 47.70842 32892 ft 450 kts 124°
2026-05-05 15:26 46.38151 47.78475 32890 ft 451 kts 124°
2026-05-05 15:26 46.34756 47.86102 32887 ft 450 kts 124°
2026-05-05 15:27 46.31354 47.93718 32882 ft 450 kts 124°
2026-05-05 15:27 46.28278 48.01597 32880 ft 452 kts 112°
2026-05-05 15:28 46.26674 48.10415 32877 ft 455 kts 104°
2026-05-05 15:28 46.25314 48.19343 32876 ft 455 kts 104°
2026-05-05 15:29 46.23936 48.28269 32875 ft 456 kts 104°
2026-05-05 15:29 46.22570 48.37154 32872 ft 456 kts 104°
2026-05-05 15:30 46.21184 48.46104 32870 ft 457 kts 104°
2026-05-05 15:30 46.20278 48.50480 32864 ft 454 kts 115°
2026-05-05 15:30 46.18810 48.54473 32855 ft 450 kts 127°
2026-05-05 15:30 46.16830 48.57941 32859 ft 446 kts 138°
2026-05-05 15:31 46.14437 48.60756 32854 ft 443 kts 149°
2026-05-05 15:31 46.11723 48.62849 32851 ft 441 kts 160°
2026-05-05 15:31 46.08811 48.64196 32851 ft 440 kts 166°
2026-05-05 15:32 46.02904 48.66560 32856 ft 441 kts 166°
2026-05-05 15:32 45.96988 48.68956 32862 ft 442 kts 166°
2026-05-05 15:33 45.91108 48.71328 32853 ft 442 kts 166°
2026-05-05 15:33 45.85179 48.73696 32864 ft 443 kts 166°
2026-05-05 15:34 45.79248 48.76054 32859 ft 443 kts 166°
2026-05-05 15:34 45.73314 48.78416 32868 ft 443 kts 166°
2026-05-05 15:35 45.67376 48.80778 32875 ft 443 kts 166°
2026-05-05 15:35 45.61439 48.83139 32876 ft 443 kts 167°
2026-05-05 15:36 45.55502 48.85481 32883 ft 443 kts 167°
2026-05-05 15:36 45.49565 48.87819 32885 ft 442 kts 167°
2026-05-05 15:37 45.43637 48.90160 32890 ft 442 kts 167°
2026-05-05 15:37 45.37764 48.92480 32889 ft 441 kts 167°
2026-05-05 15:38 45.31847 48.94799 32891 ft 441 kts 168°
2026-05-05 15:38 45.25940 48.97107 32887 ft 440 kts 168°
2026-05-05 15:39 45.20042 48.99415 32886 ft 440 kts 168°
2026-05-05 15:39 45.15143 49.01325 32884 ft 439 kts 168°
2026-05-05 15:40 45.09255 49.03617 32890 ft 439 kts 168°
2026-05-05 15:40 45.03376 49.05912 32888 ft 438 kts 169°
2026-05-05 15:41 44.97508 49.08190 32894 ft 437 kts 169°
2026-05-05 15:41 44.91643 49.10448 32895 ft 436 kts 169°
2026-05-05 15:42 44.85791 49.12695 32897 ft 436 kts 169°
2026-05-05 15:42 44.79947 49.14944 32899 ft 435 kts 170°
2026-05-05 15:43 44.74114 49.17196 32902 ft 434 kts 170°
2026-05-05 15:43 44.68295 49.19439 32906 ft 433 kts 170°
2026-05-05 15:44 44.62525 49.21640 32906 ft 432 kts 171°
2026-05-05 15:44 44.56722 49.23851 32908 ft 432 kts 171°
2026-05-05 15:45 44.50936 49.26049 32912 ft 430 kts 171°
2026-05-05 15:45 44.45161 49.28250 32914 ft 429 kts 171°
2026-05-05 15:46 44.39404 49.30443 32919 ft 428 kts 171°
2026-05-05 15:46 44.33653 49.32616 32922 ft 428 kts 172°
2026-05-05 15:47 44.27913 49.34781 32935 ft 427 kts 172°
2026-05-05 15:47 44.22192 49.36940 32932 ft 425 kts 172°
2026-05-05 15:48 44.16523 49.39070 32931 ft 424 kts 172°
2026-05-05 15:48 44.10833 49.41207 32931 ft 423 kts 172°
2026-05-05 15:49 44.05162 49.43336 32932 ft 422 kts 172°
2026-05-05 15:49 43.99497 49.45459 32933 ft 421 kts 172°
2026-05-05 15:50 43.93833 49.47478 32928 ft 415 kts 178°
2026-05-05 15:50 43.90993 49.47682 32932 ft 404 kts 190°
2026-05-05 15:50 43.88266 49.46997 32932 ft 396 kts 201°
2026-05-05 15:50 43.85758 49.45505 32931 ft 391 kts 212°
2026-05-05 15:51 43.83565 49.43317 32929 ft 388 kts 223°
2026-05-05 15:51 43.80045 49.37642 32930 ft 389 kts 230°
2026-05-05 15:52 43.76619 49.31843 32930 ft 389 kts 230°
2026-05-05 15:52 43.73183 49.26051 32928 ft 390 kts 229°
2026-05-05 15:53 43.69758 49.20305 32935 ft 390 kts 229°
2026-05-05 15:53 43.66305 49.14528 32935 ft 390 kts 229°
2026-05-05 15:54 43.62856 49.08752 32933 ft 390 kts 229°
2026-05-05 15:54 43.59408 49.02984 32938 ft 390 kts 229°
2026-05-05 15:55 43.55957 48.97221 32945 ft 390 kts 229°
2026-05-05 15:55 43.52501 48.91467 32949 ft 390 kts 229°
2026-05-05 15:56 43.49039 48.85718 32954 ft 390 kts 229°
2026-05-05 15:56 43.45575 48.79968 32954 ft 390 kts 229°
2026-05-05 15:57 43.42113 48.74223 32957 ft 390 kts 229°
2026-05-05 15:57 43.38663 48.68518 32961 ft 390 kts 229°
2026-05-05 15:58 43.35183 48.62790 32963 ft 390 kts 229°
2026-05-05 15:58 43.31706 48.57061 32968 ft 390 kts 229°
2026-05-05 15:59 43.28226 48.51336 32973 ft 391 kts 228°
2026-05-05 15:59 43.24738 48.45622 32974 ft 391 kts 228°
2026-05-05 16:00 43.21277 48.39875 32965 ft 391 kts 230°
2026-05-05 16:00 43.17946 48.33978 32968 ft 391 kts 230°
2026-05-05 16:01 43.14642 48.28048 32971 ft 392 kts 230°
2026-05-05 16:01 43.11330 48.22185 32988 ft 392 kts 230°
2026-05-05 16:01 43.09655 48.19243 33158 ft 393 kts 230°
2026-05-05 16:02 43.07967 48.16293 33387 ft 394 kts 230°
2026-05-05 16:02 43.06278 48.13346 33609 ft 394 kts 230°
2026-05-05 16:02 43.04590 48.10406 33820 ft 394 kts 230°
2026-05-05 16:02 43.02891 48.07447 33968 ft 395 kts 230°
2026-05-05 16:03 43.01193 48.04482 33982 ft 395 kts 230°
2026-05-05 16:03 42.97806 47.98566 33984 ft 395 kts 230°
2026-05-05 16:04 42.94411 47.92660 33981 ft 395 kts 229°
2026-05-05 16:04 42.91007 47.86755 33983 ft 396 kts 229°
2026-05-05 16:05 42.87595 47.80863 33975 ft 396 kts 229°
2026-05-05 16:05 42.84184 47.74960 33976 ft 396 kts 229°
2026-05-05 16:06 42.80793 47.69104 33987 ft 396 kts 229°
2026-05-05 16:06 42.77360 47.63228 34021 ft 397 kts 229°
2026-05-05 16:07 42.73885 47.57397 34003 ft 397 kts 228°
2026-05-05 16:07 42.70392 47.51561 34015 ft 397 kts 228°
2026-05-05 16:08 42.66909 47.45735 34005 ft 397 kts 228°
2026-05-05 16:08 42.63425 47.39904 33998 ft 397 kts 228°
2026-05-05 16:09 42.59945 47.34083 33995 ft 397 kts 228°
2026-05-05 16:09 42.56482 47.28317 33997 ft 397 kts 228°
2026-05-05 16:10 42.52985 47.22504 33995 ft 397 kts 228°
2026-05-05 16:10 42.49487 47.16704 33989 ft 397 kts 228°
2026-05-05 16:11 42.45982 47.10901 33976 ft 398 kts 228°
2026-05-05 16:12 42.38953 46.99300 33963 ft 399 kts 228°
2026-05-05 16:13 42.30111 46.84782 33949 ft 401 kts 229°
2026-05-05 16:13 42.26565 46.78969 33947 ft 401 kts 228°
2026-05-05 16:14 42.19464 46.67359 33956 ft 403 kts 228°
2026-05-05 16:15 42.12294 46.55701 33967 ft 404 kts 228°
2026-05-05 16:16 42.05101 46.44048 33971 ft 405 kts 228°
2026-05-05 16:17 41.99699 46.35315 33969 ft 405 kts 228°
2026-05-05 16:18 41.96344 46.29243 33967 ft 408 kts 239°
2026-05-05 16:18 41.95218 46.25731 33967 ft 412 kts 248°
2026-05-05 16:19 41.93455 46.14313 33956 ft 417 kts 254°
2026-05-05 16:19 41.91784 46.02846 33939 ft 418 kts 254°
2026-05-05 16:20 41.89532 45.87571 33931 ft 419 kts 254°
2026-05-05 16:22 41.86673 45.68329 33920 ft 422 kts 254°
2026-05-05 16:23 41.84355 45.52862 33924 ft 424 kts 254°
2026-05-05 16:23 41.82594 45.41226 33929 ft 425 kts 254°
2026-05-05 16:24 41.81411 45.33462 33938 ft 425 kts 254°
2026-05-05 16:25 41.79631 45.21862 33947 ft 425 kts 253°
2026-05-05 16:25 41.77832 45.10230 33954 ft 425 kts 253°
2026-05-05 16:26 41.75418 44.94727 33958 ft 425 kts 253°
2026-05-05 16:27 41.74203 44.86966 33960 ft 425 kts 253°
2026-05-05 16:27 41.72985 44.79222 33955 ft 425 kts 253°
2026-05-05 16:28 41.71760 44.71475 33952 ft 426 kts 253°
2026-05-05 16:28 41.70526 44.63714 33949 ft 427 kts 253°
2026-05-05 16:29 41.69292 44.55997 33955 ft 427 kts 253°
2026-05-05 16:29 41.68051 44.48224 33970 ft 427 kts 254°
2026-05-05 16:30 41.66801 44.40458 33980 ft 427 kts 253°
2026-05-05 16:30 41.65544 44.32708 33982 ft 426 kts 253°
2026-05-05 16:31 41.64283 44.24960 33986 ft 426 kts 253°
2026-05-05 16:31 41.63027 44.17223 33989 ft 426 kts 253°
2026-05-05 16:32 41.61755 44.09486 33989 ft 427 kts 253°
2026-05-05 16:32 41.60473 44.01738 33989 ft 427 kts 253°
2026-05-05 16:33 41.59187 43.93993 33993 ft 428 kts 253°
2026-05-05 16:33 41.57895 43.86231 33989 ft 428 kts 253°
2026-05-05 16:34 41.56610 43.78513 33998 ft 429 kts 253°
2026-05-05 16:34 41.55308 43.70743 33989 ft 429 kts 253°
2026-05-05 16:35 41.53999 43.62968 33985 ft 430 kts 253°
2026-05-05 16:35 41.52684 43.55186 33976 ft 430 kts 252°
2026-05-05 16:36 41.51359 43.47388 33973 ft 431 kts 252°
2026-05-05 16:36 41.50024 43.39569 33974 ft 433 kts 252°
2026-05-05 16:37 41.48683 43.31734 33973 ft 434 kts 252°
2026-05-05 16:37 41.47336 43.23885 33964 ft 435 kts 252°
2026-05-05 16:38 41.45977 43.16027 33971 ft 436 kts 252°
2026-05-05 16:38 41.44839 43.09476 33966 ft 436 kts 252°
2026-05-05 16:39 41.43461 43.01599 33969 ft 437 kts 252°
2026-05-05 16:39 41.41987 42.92370 33969 ft 440 kts 255°
2026-05-05 16:40 41.41047 42.84304 33977 ft 442 kts 257°
2026-05-05 16:40 41.40312 42.77515 33981 ft 442 kts 257°
2026-05-05 16:41 41.39370 42.69479 33987 ft 442 kts 256°
2026-05-05 16:41 41.38365 42.61398 33985 ft 443 kts 256°
2026-05-05 16:42 41.37347 42.53300 33991 ft 444 kts 256°
2026-05-05 16:42 41.36329 42.45193 33996 ft 444 kts 256°
2026-05-05 16:43 41.35309 42.37084 34003 ft 445 kts 256°
2026-05-05 16:43 41.34281 42.28956 34011 ft 446 kts 256°
2026-05-05 16:44 41.33248 42.20827 34012 ft 446 kts 256°
2026-05-05 16:44 41.32205 42.12682 34012 ft 447 kts 256°
2026-05-05 16:45 41.31158 42.04535 34025 ft 447 kts 256°
2026-05-05 16:45 41.30102 41.96388 34028 ft 448 kts 256°
2026-05-05 16:46 41.29041 41.88277 34019 ft 448 kts 256°
2026-05-05 16:46 41.27958 41.80123 34030 ft 448 kts 256°
2026-05-05 16:47 41.26870 41.71951 34033 ft 448 kts 256°
2026-05-05 16:47 41.25780 41.63787 34039 ft 449 kts 256°
2026-05-05 16:48 41.23981 41.55907 34042 ft 445 kts 248°
2026-05-05 16:48 41.21984 41.48112 34045 ft 446 kts 248°
2026-05-05 16:49 41.19976 41.40311 34052 ft 446 kts 248°
2026-05-05 16:49 41.17957 41.32527 34049 ft 446 kts 248°
2026-05-05 16:50 41.15937 41.24738 34052 ft 446 kts 248°
2026-05-05 16:50 41.13917 41.16951 34048 ft 446 kts 248°
2026-05-05 16:51 41.11907 41.09219 34052 ft 446 kts 248°
2026-05-05 16:51 41.09875 41.01444 34045 ft 446 kts 248°
2026-05-05 16:52 41.07836 40.93686 34048 ft 445 kts 248°
2026-05-05 16:52 41.05795 40.85935 34045 ft 445 kts 248°
2026-05-05 16:53 41.03756 40.78194 34049 ft 446 kts 248°
2026-05-05 16:53 41.01712 40.70445 34055 ft 446 kts 248°
2026-05-05 16:54 40.99659 40.62697 34050 ft 446 kts 248°
2026-05-05 16:54 40.97608 40.55008 34057 ft 446 kts 248°
2026-05-05 16:55 40.95538 40.47285 34068 ft 446 kts 248°
2026-05-05 16:55 40.93460 40.39552 34064 ft 446 kts 248°
2026-05-05 16:56 40.91386 40.31829 34063 ft 446 kts 248°
2026-05-05 16:56 40.89306 40.24101 34069 ft 446 kts 248°
2026-05-05 16:57 40.87220 40.16387 34067 ft 446 kts 248°
2026-05-05 16:57 40.85117 40.08669 34070 ft 446 kts 248°
2026-05-05 16:58 40.83019 40.00952 34065 ft 447 kts 248°
2026-05-05 16:58 40.80940 39.93323 34063 ft 447 kts 248°
2026-05-05 16:59 40.78818 39.85590 34064 ft 447 kts 248°
2026-05-05 16:59 40.76697 39.77882 34057 ft 447 kts 248°
2026-05-05 17:00 40.74572 39.70179 34049 ft 447 kts 248°
2026-05-05 17:00 40.72445 39.62471 34041 ft 448 kts 248°
2026-05-05 17:01 40.70308 39.54753 34040 ft 449 kts 248°
2026-05-05 17:01 40.68161 39.47035 34032 ft 449 kts 248°
2026-05-05 17:02 40.66007 39.39304 34033 ft 450 kts 248°
2026-05-05 17:02 40.63843 39.31573 34034 ft 450 kts 248°
2026-05-05 17:03 40.61670 39.23847 34037 ft 450 kts 248°
2026-05-05 17:03 40.59494 39.16124 34036 ft 450 kts 248°
2026-05-05 17:04 40.57307 39.08396 34029 ft 450 kts 248°
2026-05-05 17:04 40.55126 39.00680 34017 ft 450 kts 248°
2026-05-05 17:05 40.52954 38.93019 34014 ft 450 kts 247°
2026-05-05 17:05 40.50767 38.85309 34016 ft 450 kts 247°
2026-05-05 17:06 40.48564 38.77607 34005 ft 450 kts 246°
2026-05-05 17:06 40.47075 38.74036 34004 ft 445 kts 230°
2026-05-05 17:06 40.44881 38.71225 33996 ft 440 kts 213°
2026-05-05 17:07 40.42172 38.69414 33986 ft 437 kts 196°
2026-05-05 17:07 40.39195 38.68630 33976 ft 437 kts 187°
2026-05-05 17:07 40.33151 38.67705 33965 ft 438 kts 187°
2026-05-05 17:08 40.27078 38.66820 33955 ft 440 kts 186°
2026-05-05 17:08 40.20990 38.65946 33953 ft 440 kts 186°
2026-05-05 17:09 40.14992 38.64495 33937 ft 439 kts 203°
2026-05-05 17:09 40.12359 38.62492 33936 ft 439 kts 219°
2026-05-05 17:09 40.10278 38.59662 33933 ft 441 kts 234°
2026-05-05 17:10 40.08856 38.56135 33933 ft 443 kts 249°
2026-05-05 17:10 40.07914 38.52274 33936 ft 445 kts 251°
2026-05-05 17:10 40.06051 38.44562 33933 ft 446 kts 250°
2026-05-05 17:11 40.04152 38.36836 33936 ft 448 kts 250°
2026-05-05 17:11 40.02239 38.29095 33938 ft 448 kts 250°
2026-05-05 17:12 40.00323 38.21347 33935 ft 449 kts 250°
2026-05-05 17:12 39.98408 38.13598 33940 ft 449 kts 250°
2026-05-05 17:13 39.96485 38.05849 33945 ft 449 kts 250°
2026-05-05 17:13 39.94560 37.98112 33950 ft 449 kts 250°
2026-05-05 17:14 39.92621 37.90382 33957 ft 449 kts 250°
2026-05-05 17:14 39.90679 37.82655 33959 ft 449 kts 250°
2026-05-05 17:15 39.88731 37.74923 33963 ft 449 kts 250°
2026-05-05 17:15 39.86790 37.67238 33959 ft 450 kts 250°
2026-05-05 17:16 39.84831 37.59508 33965 ft 450 kts 250°
2026-05-05 17:16 39.82863 37.51770 33969 ft 451 kts 250°
2026-05-05 17:17 39.80893 37.44024 33976 ft 451 kts 250°
2026-05-05 17:17 39.78917 37.36285 33981 ft 451 kts 250°
2026-05-05 17:18 39.76931 37.28548 33987 ft 452 kts 250°
2026-05-05 17:18 39.74938 37.20797 33995 ft 452 kts 250°
2026-05-05 17:19 39.72939 37.13053 34001 ft 452 kts 250°
2026-05-05 17:19 39.70933 37.05311 34003 ft 453 kts 250°
2026-05-05 17:20 39.68931 36.97614 34009 ft 453 kts 250°
2026-05-05 17:20 39.66908 36.89873 34009 ft 453 kts 250°
2026-05-05 17:21 39.64879 36.82114 34018 ft 454 kts 250°
2026-05-05 17:22 39.61830 36.70495 34020 ft 454 kts 250°
2026-05-05 17:22 39.59786 36.62747 34023 ft 454 kts 250°
2026-05-05 17:23 39.57741 36.55012 34030 ft 454 kts 250°
2026-05-05 17:23 39.55690 36.47278 34025 ft 454 kts 250°
2026-05-05 17:24 39.53629 36.39545 34024 ft 454 kts 250°
2026-05-05 17:24 39.51569 36.31818 34023 ft 454 kts 250°
2026-05-05 17:25 39.49503 36.24096 34023 ft 454 kts 250°
2026-05-05 17:25 39.47457 36.16429 34023 ft 454 kts 250°
2026-05-05 17:26 39.45383 36.08729 34014 ft 453 kts 250°
2026-05-05 17:26 39.43298 36.01031 34015 ft 453 kts 250°
2026-05-05 17:27 39.41215 35.93347 34011 ft 453 kts 251°
2026-05-05 17:27 39.39131 35.85669 34009 ft 453 kts 251°
2026-05-05 17:28 39.37038 35.77995 34004 ft 453 kts 251°
2026-05-05 17:28 39.34939 35.70318 33998 ft 453 kts 251°
2026-05-05 17:29 39.32839 35.62644 33994 ft 453 kts 251°
2026-05-05 17:29 39.30736 35.54976 33988 ft 453 kts 251°
2026-05-05 17:30 39.28614 35.47304 33985 ft 454 kts 251°
2026-05-05 17:30 39.26486 35.39632 33987 ft 454 kts 251°
2026-05-05 17:31 39.24366 35.32007 33988 ft 455 kts 251°
2026-05-05 17:31 39.22231 35.24334 33954 ft 454 kts 253°
2026-05-05 17:32 39.20087 35.16636 34012 ft 457 kts 253°
2026-05-05 17:32 39.17936 35.08936 34017 ft 456 kts 253°
2026-05-05 17:33 39.15788 35.01280 34016 ft 455 kts 253°
2026-05-05 17:33 39.13626 34.93619 34028 ft 454 kts 253°
2026-05-05 17:34 39.11469 34.85996 34028 ft 453 kts 253°
2026-05-05 17:34 39.09314 34.78390 34012 ft 452 kts 254°
2026-05-05 17:35 39.06785 34.70970 34019 ft 455 kts 247°
2026-05-05 17:35 39.03872 34.63733 34013 ft 455 kts 247°
2026-05-05 17:36 39.00954 34.56564 34019 ft 455 kts 247°
2026-05-05 17:36 38.98016 34.49351 34015 ft 455 kts 247°
2026-05-05 17:37 38.95083 34.42151 34020 ft 455 kts 247°
2026-05-05 17:37 38.92143 34.34942 34018 ft 455 kts 248°
2026-05-05 17:38 38.89201 34.27747 34010 ft 455 kts 248°
2026-05-05 17:38 38.86750 34.21774 34013 ft 455 kts 248°
2026-05-05 17:39 38.83798 34.14589 34011 ft 455 kts 248°
2026-05-05 17:39 38.80845 34.07417 34020 ft 454 kts 248°
2026-05-05 17:40 38.77896 34.00263 34020 ft 454 kts 248°
2026-05-05 17:40 38.74945 33.93122 34023 ft 453 kts 248°
2026-05-05 17:41 38.71989 33.86001 34028 ft 452 kts 248°
2026-05-05 17:41 38.69040 33.78907 34034 ft 451 kts 248°
2026-05-05 17:42 38.66096 33.71846 34036 ft 449 kts 248°
2026-05-05 17:42 38.63176 33.64857 34029 ft 448 kts 248°
2026-05-05 17:43 38.60245 33.57848 34026 ft 446 kts 248°
2026-05-05 17:43 38.57325 33.50868 34031 ft 445 kts 248°
2026-05-05 17:44 38.54400 33.43917 34024 ft 444 kts 248°
2026-05-05 17:44 38.51471 33.36987 34026 ft 442 kts 248°
2026-05-05 17:45 38.48552 33.30085 34030 ft 441 kts 248°
2026-05-05 17:45 38.45636 33.23198 34030 ft 441 kts 247°
2026-05-05 17:46 38.42720 33.16326 34037 ft 440 kts 247°
2026-05-05 17:46 38.39829 33.09514 34039 ft 439 kts 247°
2026-05-05 17:47 38.36918 33.02670 34036 ft 439 kts 247°
2026-05-05 17:47 38.34004 32.95837 34034 ft 439 kts 247°
2026-05-05 17:48 38.31081 32.89015 34035 ft 439 kts 246°
2026-05-05 17:48 38.28161 32.82191 34035 ft 439 kts 246°
2026-05-05 17:49 38.25244 32.75371 34033 ft 439 kts 246°
2026-05-05 17:49 38.22320 32.68573 34028 ft 439 kts 246°
2026-05-05 17:50 38.19379 32.61754 34028 ft 439 kts 246°
2026-05-05 17:50 38.16443 32.54955 34028 ft 439 kts 246°
2026-05-05 17:51 38.13498 32.48158 34027 ft 439 kts 245°
2026-05-05 17:51 38.10564 32.41410 34032 ft 439 kts 245°
2026-05-05 17:52 38.07611 32.34633 34037 ft 439 kts 245°
2026-05-05 17:52 38.04655 32.27863 34042 ft 438 kts 245°
2026-05-05 17:53 38.01710 32.21110 34052 ft 438 kts 245°
2026-05-05 17:53 37.98756 32.14363 34057 ft 437 kts 244°
2026-05-05 17:54 37.95801 32.07636 34061 ft 437 kts 244°
2026-05-05 17:54 37.92843 32.00907 34066 ft 437 kts 244°
2026-05-05 17:55 37.89908 31.94249 33704 ft 424 kts 244°
2026-05-05 17:55 37.88489 31.91042 33551 ft 412 kts 244°
2026-05-05 17:55 37.87101 31.87905 33152 ft 403 kts 244°
2026-05-05 17:55 37.85741 31.84833 32489 ft 398 kts 244°
2026-05-05 17:56 37.84397 31.81798 31822 ft 393 kts 244°
2026-05-05 17:56 37.83064 31.78791 31154 ft 389 kts 244°
2026-05-05 17:56 37.81748 31.75821 30522 ft 385 kts 244°
2026-05-05 17:56 37.80446 31.72880 29778 ft 380 kts 244°
2026-05-05 17:57 37.79154 31.69963 28558 ft 380 kts 244°
2026-05-05 17:57 37.77867 31.67066 27570 ft 375 kts 244°
2026-05-05 17:57 37.76598 31.64222 26683 ft 368 kts 244°
2026-05-05 17:57 37.75348 31.61429 25834 ft 362 kts 244°
2026-05-05 17:58 37.74121 31.58684 25033 ft 355 kts 244°
2026-05-05 17:58 37.72934 31.56020 24251 ft 350 kts 244°
2026-05-05 17:58 37.71750 31.53362 23437 ft 345 kts 244°
2026-05-05 17:58 37.70582 31.50739 22522 ft 341 kts 244°
2026-05-05 17:59 37.69421 31.48141 21617 ft 337 kts 243°
2026-05-05 17:59 37.68276 31.45578 20765 ft 334 kts 243°
2026-05-05 17:59 37.67141 31.43041 19916 ft 330 kts 243°
2026-05-05 17:59 37.65987 31.40462 19077 ft 352 kts 243°
2026-05-05 18:00 37.64735 31.37659 18362 ft 377 kts 242°
2026-05-05 18:00 37.63433 31.34751 18046 ft 383 kts 242°
2026-05-05 18:00 37.62125 31.31840 16803 ft 382 kts 242°
2026-05-05 18:00 37.60802 31.28902 15227 ft 387 kts 242°
2026-05-05 18:01 37.59496 31.26017 14604 ft 366 kts 242°
2026-05-05 18:01 37.58280 31.23337 14235 ft 341 kts 242°
2026-05-05 18:01 37.57124 31.20781 13459 ft 331 kts 242°
2026-05-05 18:01 37.55997 31.18279 12532 ft 326 kts 242°
2026-05-05 18:02 37.54882 31.15805 11634 ft 323 kts 241°
2026-05-05 18:02 37.53768 31.13343 11196 ft 322 kts 241°
2026-05-05 18:02 37.52696 31.10977 11029 ft 310 kts 242°
2026-05-05 18:02 37.51647 31.08664 11023 ft 295 kts 241°
2026-05-05 18:03 37.50656 31.06478 11029 ft 280 kts 241°
2026-05-05 18:03 37.49713 31.04401 11027 ft 265 kts 241°
2026-05-05 18:03 37.48818 31.02427 11025 ft 256 kts 242°
2026-05-05 18:03 37.47938 31.00488 11055 ft 254 kts 242°
2026-05-05 18:04 37.47059 30.98554 11035 ft 254 kts 242°
2026-05-05 18:04 37.46181 30.96621 11022 ft 254 kts 242°
2026-05-05 18:04 37.45307 30.94693 11033 ft 254 kts 241°
2026-05-05 18:04 37.44235 30.92941 10885 ft 254 kts 225°
2026-05-05 18:05 37.42752 30.91709 10390 ft 259 kts 205°
2026-05-05 18:05 37.41046 30.90980 9987 ft 259 kts 200°
2026-05-05 18:05 37.39334 30.90265 9559 ft 258 kts 200°
2026-05-05 18:05 37.37638 30.89543 9116 ft 256 kts 201°
2026-05-05 18:06 37.35958 30.88821 8566 ft 255 kts 201°
2026-05-05 18:06 37.34845 30.88342 8195 ft 255 kts 201°
2026-05-05 18:06 37.32588 30.87371 7397 ft 257 kts 200°
2026-05-05 18:06 37.30967 30.86686 7148 ft 244 kts 198°
2026-05-05 18:07 37.29331 30.86222 6897 ft 242 kts 193°
2026-05-05 18:07 37.27682 30.85793 6605 ft 239 kts 193°
2026-05-05 18:07 37.26061 30.85376 6324 ft 237 kts 192°
2026-05-05 18:07 37.24452 30.84962 6050 ft 235 kts 192°
2026-05-05 18:08 37.22852 30.84549 5781 ft 234 kts 192°
2026-05-05 18:08 37.21265 30.84138 5524 ft 232 kts 192°
2026-05-05 18:08 37.19696 30.83732 5272 ft 231 kts 192°
2026-05-05 18:08 37.18129 30.83307 5012 ft 229 kts 193°
2026-05-05 18:09 37.16563 30.82944 4756 ft 228 kts 189°
2026-05-05 18:09 37.14998 30.82699 4491 ft 226 kts 187°
2026-05-05 18:09 37.13439 30.82485 4240 ft 225 kts 186°
2026-05-05 18:09 37.11927 30.82278 4129 ft 211 kts 186°
2026-05-05 18:10 37.10508 30.82083 3894 ft 201 kts 186°
2026-05-05 18:10 37.09144 30.81895 3637 ft 194 kts 186°
2026-05-05 18:10 37.07834 30.81714 3419 ft 183 kts 186°
2026-05-05 18:10 37.06609 30.81545 3161 ft 171 kts 186°
2026-05-05 18:11 37.05477 30.81389 2932 ft 159 kts 185°
2026-05-05 18:11 37.04408 30.81242 2728 ft 155 kts 185°
2026-05-05 18:11 37.03344 30.81096 2527 ft 153 kts 185°
2026-05-05 18:11 37.02291 30.80951 2330 ft 152 kts 185°
2026-05-05 18:12 37.01243 30.80807 2120 ft 151 kts 185°
2026-05-05 18:12 37.00201 30.80667 1898 ft 150 kts 185°
2026-05-05 18:12 36.99164 30.80530 1698 ft 149 kts 185°
2026-05-05 18:12 36.98134 30.80394 1490 ft 148 kts 186°
2026-05-05 18:13 36.97108 30.80261 1350 ft 148 kts 185°
2026-05-05 18:13 36.96085 30.80118 1127 ft 147 kts 186°
2026-05-05 18:13 36.95071 30.79971 906 ft 146 kts 187°
2026-05-05 18:13 36.94063 30.79832 732 ft 146 kts 187°
2026-05-05 18:14 36.93052 30.79695 541 ft 146 kts 187°
2026-05-05 18:14 36.92042 30.79558 352 ft 146 kts 188°
2026-05-05 18:14 36.91047 30.79408 213 ft 136 kts 189°
2026-05-05 18:14 36.90094 30.79242 522 ft 145 kts 188°
2026-05-05 18:15 36.89061 30.79115 1203 ft 155 kts 185°
2026-05-05 18:15 36.87956 30.78967 1844 ft 164 kts 185°
2026-05-05 18:15 36.86758 30.78800 1984 ft 184 kts 186°
2026-05-05 18:15 36.85413 30.78610 2117 ft 204 kts 186°
2026-05-05 18:16 36.83946 30.78403 2243 ft 227 kts 186°
2026-05-05 18:16 36.82331 30.78179 2777 ft 237 kts 186°
2026-05-05 18:16 36.80684 30.77952 2963 ft 239 kts 186°
2026-05-05 18:16 36.79030 30.77726 3006 ft 238 kts 186°
2026-05-05 18:17 36.77384 30.77504 3004 ft 238 kts 186°
2026-05-05 18:17 36.75739 30.77282 3005 ft 238 kts 186°
2026-05-05 18:17 36.74087 30.77049 3007 ft 239 kts 186°
2026-05-05 18:17 36.72434 30.76817 3005 ft 239 kts 186°
2026-05-05 18:18 36.70783 30.76843 3004 ft 238 kts 162°
2026-05-05 18:18 36.69387 30.77859 3004 ft 235 kts 130°
2026-05-05 18:18 36.68649 30.79628 3006 ft 231 kts 97°
2026-05-05 18:18 36.68781 30.81588 3007 ft 229 kts 71°
2026-05-05 18:19 36.69350 30.83445 3004 ft 230 kts 66°
2026-05-05 18:19 36.69983 30.85272 3002 ft 230 kts 66°
2026-05-05 18:19 36.70762 30.87001 3000 ft 229 kts 46°
2026-05-05 18:19 36.72109 30.88023 3004 ft 230 kts 15°
2026-05-05 18:20 36.73687 30.88353 3006 ft 232 kts
2026-05-05 18:20 36.75306 30.88550 3005 ft 232 kts
2026-05-05 18:20 36.76918 30.88728 3004 ft 233 kts
2026-05-05 18:20 36.78530 30.88901 3004 ft 233 kts
2026-05-05 18:21 36.80150 30.89071 3008 ft 233 kts
2026-05-05 18:21 36.81767 30.89242 3010 ft 233 kts
2026-05-05 18:21 36.83388 30.89413 3009 ft 234 kts
2026-05-05 18:21 36.85007 30.89585 3010 ft 234 kts
2026-05-05 18:22 36.86630 30.89756 3009 ft 234 kts
2026-05-05 18:22 36.88252 30.89926 3011 ft 234 kts
2026-05-05 18:22 36.89876 30.90095 3007 ft 234 kts
2026-05-05 18:22 36.91474 30.90260 3007 ft 234 kts
2026-05-05 18:23 36.93097 30.90430 3011 ft 234 kts
2026-05-05 18:23 36.94719 30.90601 3008 ft 234 kts
2026-05-05 18:23 36.96343 30.90773 3008 ft 234 kts
2026-05-05 18:23 36.97967 30.90947 3007 ft 234 kts
2026-05-05 18:24 36.99592 30.91122 3007 ft 235 kts
2026-05-05 18:24 37.01215 30.91298 3008 ft 234 kts
2026-05-05 18:24 37.02839 30.91475 3007 ft 234 kts
2026-05-05 18:24 37.04460 30.91653 3009 ft 234 kts
2026-05-05 18:25 37.06083 30.91832 3010 ft 234 kts
2026-05-05 18:25 37.07153 30.91951 3009 ft 234 kts
2026-05-05 18:25 37.09314 30.91766 3010 ft 235 kts 339°
2026-05-05 18:25 37.10662 30.90636 3011 ft 236 kts 310°
2026-05-05 18:26 37.11432 30.88847 3011 ft 235 kts 282°
2026-05-05 18:26 37.11466 30.86818 3042 ft 234 kts 259°
2026-05-05 18:26 37.10946 30.84887 3013 ft 234 kts 241°
2026-05-05 18:26 37.09963 30.83271 3006 ft 234 kts 222°
2026-05-05 18:27 37.08625 30.82139 3008 ft 233 kts 203°
2026-05-05 18:27 37.07092 30.81609 3009 ft 233 kts 186°
2026-05-05 18:27 37.05475 30.81388 2890 ft 234 kts 185°
2026-05-05 18:27 37.03868 30.81169 2613 ft 230 kts 185°
2026-05-05 18:28 37.00897 30.80759 2062 ft 195 kts 185°
2026-05-05 18:28 36.99638 30.80585 1813 ft 169 kts 185°
2026-05-05 18:28 36.98527 30.80432 1581 ft 155 kts 185°
2026-05-05 18:29 36.97474 30.80288 1374 ft 150 kts 186°
2026-05-05 18:29 36.96444 30.80153 1148 ft 147 kts 186°
2026-05-05 18:29 36.95426 30.80016 962 ft 146 kts 187°
2026-05-05 18:29 36.94412 30.79879 774 ft 147 kts 187°
2026-05-05 18:30 36.93401 30.79752 629 ft 146 kts 188°
2026-05-05 18:30 36.92395 30.79604 409 ft 145 kts 188°
2026-05-05 18:30 36.91393 30.79469 225 ft 145 kts 189°
2026-05-05 18:30 36.90505 30.79333 197 ft 101 kts 186°
2026-05-05 18:31 36.89989 30.79266 191 ft 52 kts 185°
2026-05-05 18:31 36.89744 30.79236 204 ft 28 kts 186°
2026-05-05 18:31 36.89562 30.79247 201 ft 23 kts 146°
2026-05-05 18:31 36.89471 30.79301 200 ft 13 kts 161°
2026-05-05 18:32 36.89396 30.79337 195 ft 5 kts 157°
2026-05-05 18:32 36.89389 30.79358 204 ft 2 kts 93°
2026-05-05 18:32 36.89391 30.79366 199 ft 0 kts 72°
2026-05-05 18:32 36.89411 30.79398 203 ft 13 kts 36°
2026-05-05 18:33 36.89545 30.79423 192 ft 22 kts
2026-05-05 18:33 36.89651 30.79438 197 ft 5 kts
2026-05-05 18:33 36.89664 30.79459 201 ft 6 kts 88°
2026-05-05 18:33 36.89657 30.79573 192 ft 18 kts 96°
2026-05-05 18:34 36.89644 30.79722 192 ft 17 kts 96°
2026-05-05 18:34 36.89631 30.79863 196 ft 16 kts 97°
2026-05-05 18:34 36.89619 30.79996 205 ft 15 kts 96°
2026-05-05 18:34 36.89608 30.80121 192 ft 14 kts 96°
2026-05-05 18:35 36.89597 30.80236 192 ft 13 kts 98°
2026-05-05 18:35 36.89590 30.80315 205 ft 8 kts 98°
2026-05-05 18:35 36.89583 30.80379 192 ft 7 kts 96°
2026-05-05 18:35 36.89579 30.80441 203 ft 10 kts 96°
2026-05-05 18:36 36.89575 30.80534 192 ft 5 kts 68°
2026-05-05 18:36 36.89599 30.80551 192 ft 5 kts 15°
2026-05-05 18:36 36.89630 30.80506 203 ft 6 kts 275°
2026-05-05 18:36 36.89633 30.80483 202 ft 0 kts 280°
2026-05-05 18:37 36.89633 30.80482 202 ft 0 kts 280°